Retour au catalogue

SHIYAN 21

SY-21

ActifScienceVLEO
NORAD 54752·PAYLOAD·🇨🇳 China

Lancé Dec 16, 2022 depuis Xichang Satellite Launch Center

Loading…

Prochains Passages (prochaines 24 heures)

TLE

FraisSource: Space-Track

Époque: Sep 14, 2026, 09:36 UTC

1 54752U 22172A   26257.40010010  .00006149  00000-0  22190-3 0  9992
2 54752  35.9898 233.8438 0026593 304.5073  55.3150 15.27693277209330

Suivez SHIYAN 21 en temps réel avec AllMySat

Download on the App Store